EW3708 Weather Reports


time (UTC)temp
C
wind
direction
speed
KPH
gust
KPH
rain 1hr
cm
rain 24hr
cm
rain mn
cm
humidity
%
barometer
mb
20260509204525 11 160 1.6 4.8 0.03 1.07 1.07 93 1009.1
20260509203024 10 153 3.2 9.7 0.03 1.07 1.07 93 1009.1
20260509201520 10 243 0.0 4.8 0.08 1.07 1.07 93 1009.1
20260509200020 10 200 1.6 3.2 0.13 1.07 1.07 93 1009.2
20260509194516 10 200 0.0 3.2 0.13 1.04 1.04 93 1009.6
20260509193023 10 180 1.6 4.8 0.15 1.04 1.04 93 1009.9
20260509191512 10 176 3.2 8.0 0.15 0.99 0.99 93 1010.1
20260509190011 10 218 1.6 8.0 0.18 0.94 0.94 93 1010.3
20260509184527 10 154 0.0 4.8 0.23 0.91 0.91 92 1010.2
20260509183009 10 198 0.0 6.4 0.28 0.89 0.89 92 1010.2
20260509181508 10 193 3.2 11.3 0.30 0.84 0.84 92 1010.4
20260509180013 10 147 1.6 12.9 0.30 0.76 0.76 92 1010.3
20260509174507 10 142 4.8 9.7 0.30 0.71 0.69 92 1010.3
20260509173006 10 154 3.2 11.3 0.25 0.64 0.61 92 1010.4
20260509171505 10 194 3.2 8.0 0.23 0.56 0.53 92 1010.5
20260509170009 10 167 4.8 9.7 0.20 0.48 0.46 91 1010.4
20260509164504 10 234 3.2 11.3 0.15 0.41 0.38 92 1010.5
20260509163003 10 163 4.8 11.3 0.15 0.38 0.36 92 1010.5
20260509161502 10 131 4.8 16.1 0.10 0.33 0.30 91 1010.5
20260509160003 10 146 4.8 9.7 0.05 0.28 0.25 91 1010.6
20260509154502 10 165 3.2 14.5 0.05 0.25 0.23 91 1010.8
20260509153118 10 157 6.4 11.3 0.05 0.23 0.20 92 1010.8
20260509151600 10 181 1.6 4.8 0.08 0.23 0.20 91 1010.6
20260509150058 10 109 1.6 6.4 0.10 0.23 0.20 91 1010.4
20260509144502 10 203 0.0 3.2 0.13 0.20 0.18 90 1010.7
20260509143001 10 205 0.0 4.8 0.10 0.18 0.15 90 1011.1
20260509141600 10 159 1.6 11.3 0.05 0.13 0.10 89 1011.1
20260509134557 10 134 0.0 3.2 0.03 0.08 0.05 88 1010.5
20260509133057 10 114 0.0 3.2 0.03 0.08 0.05 89 1010.5
20260509131553 9 104 1.6 4.8 0.03 0.08 0.05 90 1010.5
20260509124553 8 121 0.0 3.2 0.00 0.05 0.03 90 1010.7
20260509123050 8 121 1.6 3.2 0.00 0.05 0.03 91 1010.6
20260509121547 8 265 0.0 3.2 0.00 0.05 0.03 93 1010.8
20260509120042 8 265 0.0 3.2 0.00 0.05 0.03 93 1011.0
20260509114549 8 265 0.0 1.6 0.03 0.05 0.03 93 1010.8
20260509113043 8 265 0.0 1.6 0.03 0.05 0.03 93 1010.8
20260509111540 7 265 0.0 4.8 0.03 0.05 0.03 93 1010.7
20260509110038 7 266 0.0 1.6 0.03 0.05 0.03 93 1010.9
20260509104538 7 266 0.0 3.2 0.00 0.03 0.00 92 1010.6
20260509103044 7 266 1.6 3.2 0.00 0.03 0.00 92 1010.6
20260509101555 7 266 0.0 6.4 0.00 0.03 0.00 92 1010.6
20260509100036 7 143 0.0 4.8 0.00 0.03 0.00 91 1010.8
20260509094539 7 138 0.0 1.6 0.00 0.03 0.00 91 1010.8
20260509093034 7 138 0.0 0.0 0.00 0.03 0.00 91 1010.8
20260509091532 7 138 0.0 0.0 0.00 0.03 0.00 91 1011.0
20260509090038 7 138 0.0 0.0 0.00 0.03 0.00 91 1011.1
20260509084529 7 138 0.0 1.6 0.00 0.03 0.00 91 1011.2
20260509083035 7 138 0.0 0.0 0.00 0.03 0.00 91 1011.5
20260509081529 7 138 0.0 0.0 0.00 0.03 0.00 91 1011.5
20260509080028 7 138 0.0 0.0 0.00 0.03 0.00 91 1011.7
20260509074526 7 138 0.0 1.6 0.00 0.03 0.00 91 1011.8
20260509073030 7 138 0.0 1.6 0.00 0.03 0.00 91 1011.8
20260509071533 7 138 0.0 0.0 0.00 0.03 0.00 91 1011.6
20260509070025 7 138 0.0 3.2 0.00 0.03 0.00 90 1011.5
20260509064524 8 138 0.0 1.6 0.00 0.03 0.00 90 1011.7
20260509063024 8 138 0.0 3.2 0.00 0.03 0.00 90 1011.6
20260509061523 8 138 0.0 3.2 0.00 0.03 0.00 90 1011.8
20260509060021 8 138 1.6 3.2 0.00 0.03 0.00 89 1012.0
20260509054517 8 138 1.6 4.8 0.00 0.05 0.00 89 1012.3
20260509053017 7 175 1.6 4.8 0.00 0.05 0.00 91 1012.7
20260509051514 7 144 1.6 6.4 0.00 0.05 0.00 91 1012.8
20260509050019 7 151 0.0 8.0 0.00 0.05 0.00 90 1012.7
20260509044508 7 238 0.0 0.0 0.00 0.08 0.00 90 1011.8
20260509043007 7 238 0.0 0.0 0.00 0.08 0.00 90 1012.0
20260509041506 7 238 0.0 0.0 0.00 0.08 0.00 90 1012.0
20260509040004 7 238 0.0 1.6 0.00 0.08 0.00 90 1012.1
20260509034600 7 238 0.0 1.6 0.00 0.08 0.08 89 1012.2
20260509033100 7 238 0.0 0.0 0.00 0.08 0.08 88 1012.7
20260509031603 7 238 0.0 1.6 0.00 0.08 0.08 87 1012.7
20260509030113 7 238 0.0 0.0 0.00 0.08 0.08 87 1012.6
20260509024601 7 238 0.0 1.6 0.00 0.08 0.08 85 1012.4
20260509023059 8 238 0.0 1.6 0.00 0.08 0.08 85 1012.4
20260509021558 8 238 0.0 0.0 0.00 0.08 0.08 85 1012.5
20260509020107 8 238 0.0 1.6 0.00 0.08 0.08 84 1012.4
20260509014557 8 238 0.0 1.6 0.00 0.08 0.08 84 1012.3
20260509013100 8 238 0.0 0.0 0.00 0.08 0.08 82 1012.1
20260509011558 8 238 0.0 0.0 0.00 0.08 0.08 82 1012.0
20260509010054 9 238 0.0 0.0 0.00 0.08 0.08 83 1011.7
20260509004600 9 238 0.0 1.6 0.00 0.08 0.08 83 1011.7
20260509003057 9 238 0.0 0.0 0.00 0.08 0.08 81 1011.5
20260509001553 10 238 0.0 1.6 0.00 0.08 0.08 82 1011.3
20260509000055 10 238 0.0 3.2 0.00 0.08 0.08 79 1011.3
20260508234552 10 238 0.0 3.2 0.00 0.08 0.08 75 1011.1
20260508233052 11 238 0.0 3.2 0.00 0.08 0.08 70 1011.1
20260508231550 11 238 0.0 1.6 0.00 0.08 0.08 65 1011.0
20260508230049 11 238 0.0 1.6 0.00 0.08 0.08 62 1010.8
20260508224613 11 238 0.0 3.2 0.00 0.08 0.08 61 1010.9
20260508223053 12 238 0.0 3.2 0.00 0.08 0.08 60 1010.8
20260508221548 12 244 1.6 12.9 0.00 0.08 0.08 60 1010.7
20260508220052 12 164 0.0 1.6 0.00 0.08 0.08 62 1010.7
20260508214547 12 164 1.6 4.8 0.00 0.08 0.08 60 1010.9
20260508213046 11 195 0.0 4.8 0.00 0.08 0.08 63 1010.9
20260508211551 11 268 1.6 4.8 0.00 0.08 0.08 63 1010.9
20260508210047 11 331 0.0 4.8 0.00 0.08 0.08 62 1010.9